Location: USNO
(38.9242°N, 77.0663°W)
Time: 03:01:18
(UTC-05:00)

Envisat - Pass Details

Date: 09 October 2017
Orbit: 764 x 766 km, 98.2° (Epoch: 13 December)

Event Time Altitude Azimuth Distance (km) Brightness Sun altitude
Exits shadow 20:04:31 27° 67° (ENE) 1,457 4.0 -17.6°
Drops below altitude 10° 20:08:41 10° 12° (NNE) 2,312 5.4 -18.4°
Sets 20:11:18 0° 0° (N) 3,242 6.3 -18.9°
